134  
NZUS93 KARX 050510  
HRRWXR  
 
CURRENT HOURLY OBSERVATIONS ACROSS  
MUCH OF THE UPPER MISSISSIPPI VALLEY  
NATIONAL WEATHER SERVICE LA CROSSE WI  
1200 AM CDT SUN APR 05 2020  
 
   
..SOUTHEAST MINNESOTA
 
 
 
CITY SKY/WX TMP DP RH WIND PRES REMARKS  
ROCHESTER FAIR 32 21 64 CALM 30.15S  
ROCHESTER/MAYO FAIR 33 23 65 CALM 30.16S  
WINONA FAIR 32 28 86 NW3 30.19R  
AUSTIN FAIR 34 28 80 CALM 30.15S  
ALBERT LEA FAIR N/A N/A N/A CALM 30.15F  
DODGE CENTER FAIR 30 25 80 CALM 30.16R  
PRESTON FAIR 32 23 68 CALM 30.16S  
OWATONNA N/A 30 27 86 CALM 30.16S  
FARIBAULT N/A 28 27 93 CALM 30.16F  

 
   
..ELSEWHERE IN MINNESOTA
 
 
 
CITY SKY/WX TMP DP RH WIND PRES REMARKS  
MINNEAPOLIS FAIR 35 26 69 SE7 30.16F WCI 29  
INTNL FALLS MOCLDY 26 20 77 CALM 30.13F  
DULUTH FAIR 28 17 63 CALM 30.15R  
RED WING FAIR 28 25 86 N3 30.17S  
REDWOOD FALLS FAIR 33 26 75 SE10 30.11F WCI 25  
MANKATO FAIR 32 28 85 SE6 30.15F WCI 26  
WORTHINGTON FAIR 31 26 82 CALM 30.11S  
FAIRMONT FAIR 32 28 85 SE6 30.14F WCI 26  

 
   
..SOUTHWEST WISCONSIN
 
 
 
CITY SKY/WX TMP DP RH WIND PRES REMARKS  
LA CROSSE FAIR 31 24 75 CALM 30.17S  
PRAIRIE DU CHI FAIR 32 25 77 CALM 30.16S  
BOSCOBEL FAIR 29 25 85 CALM 30.16S  
LONE ROCK FAIR 33 28 81 W5 30.15S WCI 29  
PLATTEVILLE FAIR 35 26 71 N3 30.14S  
FORT MC COY FAIR 24 23 93 CALM 30.18S  
CAMP DOUGLAS FAIR 23 23 100 CALM 30.15S  
MAUSTON-NEW LI FAIR 28 26 92 NW3 30.15S  
VIROQUA FAIR 33 25 72 CALM 30.14S  
WIS DELLS FAIR 29 26 88 CALM 30.14S  

 
   
..ELSEWHERE IN WISCONSIN
 
 
 
CITY SKY/WX TMP DP RH WIND PRES REMARKS  
MILWAUKEE CLOUDY 36 33 89 CALM 30.15S  
MADISON FAIR 36 24 62 N5 30.13S WCI 32  
GREEN BAY CLOUDY 35 32 88 E5 30.16S WCI 31  
EAU CLAIRE FAIR 27 21 78 CALM 30.16S  
BLACK RVR FLS FAIR 21 19 95 CALM 30.17S  
MEDFORD FAIR 28 24 87 CALM 30.14S  
WAUSAU FAIR 31 22 69 NW6 30.14R WCI 25  
WIS RAPIDS FAIR 29 25 85 CALM 30.15S  
MARSHFIELD FAIR 30 23 75 NW6 30.13S WCI 24  
RICE LAKE FAIR 27 25 94 N3 30.17F  

 
   
..NORTHEAST IOWA
 
 
 
CITY SKY/WX TMP DP RH WIND PRES REMARKS  
WATERLOO FAIR 31 24 75 CALM 30.14S  
DUBUQUE CLOUDY 37 26 64 N9 30.13S WCI 30  
DECORAH FAIR 32 28 86 N3 30.14S  
MASON CITY FAIR 30 25 81 NE6 30.15F WCI 24  
CHARLES CITY FAIR 32 28 86 NE7 30.14F WCI 26  
OELWEIN CLEAR 32 28 86 NE6 30.15R WCI 26  

 
   
..ELSEWHERE IN IOWA
 
 
 
CITY SKY/WX TMP DP RH WIND PRES REMARKS  
DES MOINES MOCLDY 40 26 57 NE3 30.14S  
IOWA CITY CLOUDY 45 25 45 CALM 30.15R  
FORT DODGE FAIR 28 26 92 E5 30.13F WCI 23  
MARSHALLTOWN FAIR 33 26 75 N7 30.13S WCI 27  
CEDAR RAPIDS FAIR 38 25 59 N6 30.12S WCI 33  

 
   
..NORTHERN ILLINOIS
 
 
 
CITY SKY/WX TMP DP RH WIND PRES REMARKS  
CHICAGO-OHARE MOCLDY 37 33 85 NE3 30.14R  
CHICAGO-MIDWAY MOCLDY 38 34 85 CALM 30.15R  
MOLINE CLOUDY 47 26 44 NE3 30.12S  
ROCKFORD MOCLDY 43 36 76 E6 30.15R  
PEORIA FAIR 42 36 79 E3 30.13F  

 
 
NOTE: "FAIR" INDICATES FEW OR NO CLOUDS BELOW 12,000 FEET WITH NO  
SIGNIFICANT WEATHER AND/OR OBSTRUCTIONS TO VISIBILITY. WIND  
SPEEDS ARE IN MILES-PER-HOUR.  
 
 
CLICK HERE TO GO TO PREVIOUS BULLETINS.

The Nexlab WI Page
The Nexlab IA Page
The Nexlab MN Page Main Text Page